Location: Shell Point
(30.0571°N, 84.2896°W)
Time: 00:03:38
(UTC-04:00)

Daily predictions for brighter satellites

Satellite Brightness Start Highest point End
(mag) Time Altitude Azimuth Time Altitude Azimuth Time Altitude Azimuth
H-2A R/B 4.0 00:22:52 26° NW 00:22:52 26° NW 00:25:33 10° NNW
NOSS 3-1 (C) 4.5 00:14:17 10° NNW 00:21:03 53° NE 00:21:03 53° NE
Cosmos 2369 Rocket 4.1 00:26:50 24° NNE 00:26:50 24° NNE 00:28:55 10° NNE
USA 234 4.3 00:21:32 10° NNE 00:27:29 39° NW 00:30:12 27° W
Terra 4.5 00:35:40 15° NW 00:35:40 15° NW 00:36:46 10° NW
CZ-3 Stage 3 4.2 00:13:53 10° W 00:37:01 60° W 00:37:01 60° W
ATLAS 2AS CENTAUR R/B 3.8 01:56:41 10° NNW 02:02:08 46° NNW 02:02:08 46° NNW
Cosmos 2227 Rocket 4.4 02:24:22 10° NNE 02:27:28 19° NE 02:27:28 19° NE
ATLAS CENTAUR R/B 4.3 02:53:11 18° NE 02:53:11 18° NE 02:54:30 10° NNE
Cosmos 2297 Rocket 4.3 02:45:24 10° NNE 02:49:23 21° ENE 02:49:23 21° ENE
CZ-2D R/B 3.7 03:33:33 10° NE 03:37:43 28° E 03:37:43 28° E
Cosmos 1697 Rocket 3.3 03:53:03 50° N 03:53:03 50° N 03:57:16 10° NNE
Cosmos 1980 Rocket 2.5 04:01:23 63° NE 04:01:23 63° NE 04:06:11 10° NNE
ARIANE 5 R/B 3.1 03:55:34 10° NNE 03:59:42 54° NE 03:59:42 54° NE
ADEOS 4.4 04:05:23 10° N 04:09:06 42° NNW 04:09:06 42° NNW
BREEZE-M R/B 4.5 04:05:55 10° NW 04:11:51 68° NE 04:19:34 10° SE
Okean O Rocket 3.8 04:09:06 10° NE 04:12:11 18° E 04:13:02 18° ESE
Cosmos 2227 Rocket 3.9 04:07:19 10° NW 04:09:14 21° NW 04:09:14 21° NW
Cosmos 2322 Rocket 3.4 04:12:13 31° ESE 04:13:11 33° ESE 04:18:08 10° NE
BREEZE-M DEB (TANK) 3.5 04:13:41 59° NNW 04:13:41 59° NNW 04:17:23 10° NE
Resurs 1-4 Rocket 2.3 04:08:49 10° NNE 04:13:46 67° ENE 04:13:46 67° ENE
Cosmos 1766 Rocket 4.3 04:19:38 10° N 04:23:05 51° NNE 04:23:05 51° NNE
Nadezhda 4 Rocket 3.8 04:22:28 10° N 04:28:39 70° W 04:28:54 69° WSW
ATLAS CENTAUR R/B 4.1 04:29:31 14° NW 04:29:31 14° NW 04:31:37 10° NNW
SL-16 R/B 2.5 04:27:42 44° SSE 04:29:51 82° ENE 04:36:02 10° N
IRS-1D 3.7 04:25:53 10° N 04:30:10 58° NW 04:30:10 58° NW
Cosmos 2297 Rocket 3.6 04:28:29 10° NW 04:31:06 25° NW 04:31:06 25° NW
Cosmos 1470 4.2 04:37:58 31° ESE 04:38:32 33° E 04:42:06 10° NNE
Cosmos 1842 Rocket 4.2 04:39:09 48° ESE 04:39:46 53° E 04:44:08 10° NNE
SL-16 R/B 2.4 04:45:30 44° S 04:47:12 66° ESE 04:52:49 10° NNE
CZ-2D R/B 3.5 04:42:53 10° NNE 04:47:17 78° E 04:47:36 73° SSE
Cosmos 2360 4.2 04:46:59 56° W 04:47:37 59° WNW 04:53:15 10° NNE
GPS 2-04 Rocket1 3.8 04:50:41 34° NNW 04:51:39 40° N 04:55:19 10° ENE
SL-24 R/B - RUBIN 2 4.1 04:51:12 57° WSW 04:52:17 72° WNW 04:58:28 10° NNE
PSLV R/B 4.2 04:49:02 10° NNE 04:52:45 54° E 04:53:02 52° ESE
USA 81 3.9 04:56:04 44° S 04:57:47 88° W 05:03:05 10° N
Cosmos 2026 Rocket 4.0 04:53:13 10° N 04:59:33 80° E 05:05:11 13° S
Cosmos 1634 Rocket 4.2 04:59:33 43° WSW 05:00:53 50° W 05:06:58 10° N
Cosmos 332 Rocket 3.8 05:00:31 56° W 05:01:00 59° WNW 05:05:47 10° N
UNKNOWN OBJECT B 3.7 05:05:03 10° N 05:07:58 33° NW 05:07:58 33° NW
CZ-4B R/B 3.3 05:05:30 10° NNE 05:09:13 51° E 05:10:38 31° SSE
MTI 4.3 05:10:02 47° NW 05:10:02 47° NW 05:12:33 10° NNW
Cosmos 2195 Rocket 4.3 05:04:39 10° N 05:10:43 71° W 05:14:58 21° S
SME Rocket 4.4 05:10:49 35° WSW 05:11:27 36° W 05:18:05 10° NNW
DELTA 2 R/B (1) 3.6 05:11:24 39° WSW 05:13:32 78° NNW 05:19:08 10° ENE
EO 1 Del DPAF 4.3 05:15:00 30° WNW 05:15:00 30° WNW 05:17:31 10° NNW
Cosmos 1437 3.6 05:10:56 10° NNW 05:13:17 38° NW 05:13:17 38° NW
CZ-4B R/B 3.2 05:09:30 10° NNE 05:15:00 81° ESE 05:18:32 22° S
Cosmos 2151 4.5 05:11:25 10° NNE 05:15:26 37° E 05:19:24 10° SSE
Milstar 3 Cent rocket 2.5 05:13:35 32° W 05:16:11 75° S 05:24:59 10° E
Cosmos 1733 3.1 05:15:23 46° S 05:16:27 88° E 05:20:15 10° N
CZ-2D R/B 3.2 05:13:35 10° NNW 05:18:05 28° WNW 05:19:03 26° W
NOSS 3-4 (A) 4.2 05:11:55 10° NW 05:18:26 38° WSW 05:25:16 10° S
NOSS 3-4 (C) 4.2 05:12:01 10° NW 05:18:35 39° WSW 05:25:28 10° S
Delta 128 3.6 05:17:49 45° SW 05:19:00 63° S 05:23:41 10° E
PAYLOAD B 4.2 05:13:39 10° NNE 05:19:16 87° WNW 05:22:57 22° SSW
Cosmos 371 Rocket 3.4 05:18:43 39° SW 05:20:13 57° WNW 05:24:57 10° N
IRS-1C Rocket 4.1 05:15:20 10° N 05:20:32 63° WNW 05:23:01 30° SW
Cosmos 1125 Rocket 3.5 05:16:07 10° NNW 05:21:13 59° WSW 05:25:53 12° S
ADEOS II 3.7 05:16:51 10° NE 05:21:31 32° E 05:26:08 10° SSE
Cosmos 1544 4.1 05:21:58 30° WNW 05:21:58 30° WNW 05:24:49 10° NNW
Cosmos 1953 4.2 05:23:35 16° WNW 05:23:35 16° WNW 05:25:29 10° NW
Cosmos 2227 4.2 05:19:32 10° NNW 05:25:15 66° WSW 05:30:54 10° S
ISS -2.5 05:29:46 34° S 05:29:46 34° S 05:31:58 10° SSE
ASTRO E2 3.6 05:29:48 30° SSW 05:29:48 30° SSW 05:33:05 10° SE
Cosmos 1500 Rocket 3.6 05:26:44 10° NNW 05:31:01 55° W 05:33:35 22° SSW
GEOS 3 Rocket 3.5 05:25:52 10° SSE 05:31:04 73° WSW 05:36:16 10° NW
CZ-2C R/B 3.7 05:30:57 10° S 05:35:38 67° WSW 05:40:16 10° NNW
Cosmos 1743 Rocket 4.4 05:32:39 10° NNW 05:36:27 30° W 05:37:19 27° WSW
CZ-3 R/B 3.3 05:16:58 18° WSW 05:42:00 75° S 05:49:16 10° E
Cosmos 1428 Rocket 4.4 05:37:40 10° NNW 05:43:46 69° W 05:49:47 10° S
Cosmos 2221 2.4 05:40:10 13° S 05:43:53 82° W 05:48:10 10° N
Cosmos 2360 Rocket 2.3 05:39:46 12° SSW 05:45:02 78° ESE 05:50:40 10° NNE
Cosmos 1980 Rocket 4.2 05:43:10 10° WNW 05:45:05 12° WNW 05:47:07 10° NW
Okean O Rocket 2.7 05:44:44 10° NNW 05:48:30 28° WNW 05:50:30 20° WSW
Cosmos 1674 3.3 05:49:11 10° NNW 05:52:35 33° W 05:55:00 16° SSW
OAO 1 4.5 05:47:22 10° WNW 05:52:51 82° SSW 05:58:19 10° ESE
Resurs 1-4 Rocket 4.1 05:51:44 10° NW 05:53:15 11° WNW 05:54:45 10° W
Abrixas 2.5 05:52:07 10° NW 05:55:11 80° NE 05:58:15 10° SE
Meteor 2-1 Rocket 4.2 05:49:30 10° S 05:55:11 87° W 06:00:48 10° N
GRACE-1 4.3 05:54:31 19° SSW 05:56:11 41° W 05:58:55 10° NNW
GRACE-2 4.3 05:54:54 19° SSW 05:56:37 41° W 05:59:21 10° NNW
Cosmos 2322 Rocket 3.4 05:54:05 16° WSW 05:57:10 26° WNW 06:01:47 10° N
Cosmos 1680 Rocket 3.9 05:52:27 10° S 05:57:34 63° ESE 06:02:44 10° NNE
Meteor 1-11 4.5 05:52:50 10° N 05:58:28 76° E 06:04:09 10° SSE
Delta 2 Rocket 3.2 05:56:51 19° SW 05:59:16 67° SSE 06:03:14 10° ENE
Cosmos 2058 3.0 05:56:40 10° N 06:00:54 86° E 06:05:06 10° S
Thor Agena Rocket 3.5 05:56:47 10° S 06:01:44 57° WSW 06:06:42 10° NNW
OTV 4 2.8 06:01:48 10° S 06:03:41 16° SE 06:05:34 10° ESE
Cosmos 1437 Rocket 4.1 06:00:42 10° SSE 06:04:14 39° E 06:07:49 10° NNE
RESURS DK-1 3.0 06:03:22 10° NW 06:07:07 34° WSW 06:10:50 10° S
Meteor PRIRODA 3.6 06:05:57 10° N 06:09:37 79° WNW 06:13:18 10° SSW
Feng Yun 1-1 Rocket 4.2 06:04:57 10° N 06:10:29 71° WNW 06:15:53 10° SSW
Aurora 2 Rocket 3.5 06:10:17 13° SW 06:11:40 16° SSW 06:13:50 10° SSE
PSLV R/B 3.8 06:09:31 10° N 06:13:36 48° WNW 06:17:43 10° SSW
SL-16 R/B 4.2 06:13:05 10° W 06:13:57 10° W 06:14:48 10° W
Cosmos 405 4.5 06:11:42 10° SSE 06:15:06 40° E 06:18:30 10° NNE
Cosmos 923 Rocket 4.1 06:10:18 10° SSW 06:15:26 61° WNW 06:20:36 10° N
GPS 2-12 Rocket1 4.5 06:12:44 11° SW 06:15:52 22° S 06:19:19 10° SE
SL-14 R/B 3.2 06:16:57 10° NNW 06:20:49 68° W 06:24:38 10° S
Cosmos 304 Rocket 4.2 06:20:42 10° SW 06:25:18 45° WNW 06:29:55 10° N
Cosmos 2219 Rocket 3.8 06:20:45 10° SSE 06:25:45 35° ESE 06:30:47 10° NE
Cosmos 2266 Rocket 4.1 06:20:58 10° NNW 06:26:59 56° W 06:33:05 10° SSW
Cosmos 2333 Rocket 4.4 06:22:40 10° SSE 06:27:18 27° ESE 06:31:59 10° NE
Cosmos 1461 4.1 06:26:43 10° WNW 06:29:33 19° WSW 06:32:20 10° SSW
NOAA 6 4.2 06:24:26 10° NNE 06:29:34 81° ESE 06:34:41 10° S
